| time (UTC) | temp F | wind direction | speed MPH | gust MPH | rain 1hr in | rain 24hr in | rain mn in | humidity % | barometer mb |
| 20260906200604 | 83 | 156 | 0.0 | 0.0 | 0.01 | 0.06 | 0.03 | 47 | 1017.2 |
| 20260906200104 | 83 | 147 | 0.0 | 0.0 | 0.01 | 0.06 | 0.03 | 49 | 1017.2 |
| 20260906195604 | 83 | 311 | 0.0 | 0.0 | 0.01 | 0.06 | 0.03 | 47 | 1017.3 |
| 20260906195104 | 83 | 251 | 0.0 | 0.0 | 0.01 | 0.06 | 0.03 | 49 | 1017.3 |
| 20260906194604 | 83 | 72 | 0.0 | 0.0 | 0.01 | 0.06 | 0.03 | 48 | 1017.4 |
| 20260906194104 | 83 | 19 | 0.0 | 0.0 | 0.01 | 0.06 | 0.03 | 49 | 1017.4 |
| 20260906193604 | 83 | 20 | 0.0 | 0.0 | 0.01 | 0.06 | 0.03 | 49 | 1017.4 |
| 20260906193104 | 82 | 351 | 0.0 | 0.0 | 0.01 | 0.06 | 0.03 | 52 | 1017.5 |
| 20260906192604 | 82 | 44 | 0.0 | 0.0 | 0.00 | 0.05 | 0.02 | 48 | 1017.6 |
| 20260906192104 | 82 | 80 | 0.0 | 0.0 | 0.00 | 0.05 | 0.02 | 48 | 1017.6 |
| 20260906191604 | 82 | 20 | 0.0 | 0.0 | 0.00 | 0.05 | 0.02 | 48 | 1017.6 |
| 20260906191104 | 82 | 12 | 0.0 | 0.0 | 0.00 | 0.05 | 0.02 | 52 | 1017.6 |
| 20260906190604 | 81 | 43 | 0.0 | 0.0 | 0.00 | 0.05 | 0.02 | 50 | 1017.7 |
| 20260906190107 | 81 | 4 | 0.0 | 0.0 | 0.00 | 0.05 | 0.02 | 51 | 1017.6 |
| 20260906185604 | 80 | 319 | 0.0 | 0.0 | 0.00 | 0.05 | 0.02 | 51 | 1017.7 |
| 20260906185104 | 80 | 311 | 0.0 | 0.0 | 0.00 | 0.05 | 0.02 | 52 | 1017.7 |
| 20260906184604 | 80 | 23 | 0.0 | 0.0 | 0.00 | 0.05 | 0.02 | 51 | 1017.7 |
| 20260906184104 | 80 | 5 | 0.0 | 0.0 | 0.00 | 0.05 | 0.02 | 54 | 1017.7 |
| 20260906183604 | 80 | 57 | 0.0 | 0.0 | 0.00 | 0.05 | 0.02 | 52 | 1017.7 |
| 20260906183104 | 81 | 58 | 0.0 | 0.0 | 0.00 | 0.05 | 0.02 | 52 | 1017.7 |
| 20260906182605 | 81 | 16 | 0.0 | 0.0 | 0.00 | 0.05 | 0.02 | 51 | 1017.8 |
| 20260906182104 | 81 | 36 | 0.0 | 0.0 | 0.00 | 0.05 | 0.02 | 49 | 1017.8 |
| 20260906181604 | 81 | 102 | 0.0 | 0.0 | 0.00 | 0.05 | 0.02 | 53 | 1017.8 |
| 20260906180604 | 80 | 43 | 0.0 | 0.0 | 0.00 | 0.05 | 0.02 | 52 | 1018.0 |
| 20260906180105 | 80 | 2 | 0.0 | 0.0 | 0.00 | 0.05 | 0.02 | 53 | 1018.0 |
| 20260906175604 | 80 | 17 | 0.0 | 0.0 | 0.00 | 0.06 | 0.02 | 56 | 1017.9 |
| 20260906175104 | 79 | 22 | 0.0 | 0.0 | 0.00 | 0.06 | 0.02 | 55 | 1018.1 |
| 20260906174604 | 79 | 77 | 0.0 | 0.0 | 0.00 | 0.06 | 0.02 | 59 | 1018.1 |
| 20260906174104 | 78 | 17 | 0.0 | 0.0 | 0.00 | 0.06 | 0.02 | 59 | 1018.2 |
| 20260906173604 | 78 | 19 | 0.0 | 0.0 | 0.00 | 0.06 | 0.02 | 58 | 1018.2 |
| 20260906173104 | 77 | 45 | 0.0 | 0.0 | 0.00 | 0.06 | 0.02 | 61 | 1018.2 |
| 20260906172605 | 76 | 67 | 0.0 | 0.0 | 0.00 | 0.06 | 0.02 | 63 | 1018.2 |
| 20260906172106 | 76 | 5 | 0.0 | 0.0 | 0.00 | 0.06 | 0.02 | 63 | 1018.3 |
| 20260906171604 | 76 | 30 | 0.0 | 0.0 | 0.00 | 0.06 | 0.02 | 63 | 1018.3 |
| 20260906171104 | 76 | 34 | 0.0 | 0.0 | 0.00 | 0.06 | 0.02 | 62 | 1018.3 |
| 20260906170106 | 76 | 31 | 0.0 | 0.0 | 0.00 | 0.06 | 0.02 | 62 | 1018.3 |
| 20260906165604 | 76 | 31 | 0.0 | 0.0 | 0.00 | 0.06 | 0.02 | 63 | 1018.4 |
| 20260906164604 | 76 | 106 | 0.0 | 0.0 | 0.00 | 0.06 | 0.02 | 65 | 1018.4 |
| 20260906164104 | 76 | 110 | 0.0 | 0.0 | 0.00 | 0.06 | 0.02 | 63 | 1018.4 |
| 20260906162104 | 77 | 10 | 0.0 | 0.0 | 0.00 | 0.06 | 0.02 | 64 | 1018.5 |
| 20260906161604 | 77 | 32 | 0.0 | 0.0 | 0.00 | 0.06 | 0.02 | 65 | 1018.5 |
| 20260906161104 | 77 | 61 | 0.0 | 0.0 | 0.01 | 0.06 | 0.02 | 66 | 1018.5 |
| 20260906160104 | 76 | 5 | 0.0 | 0.0 | 0.01 | 0.07 | 0.02 | 67 | 1018.6 |
| 20260906155604 | 76 | 351 | 0.0 | 0.0 | 0.01 | 0.07 | 0.02 | 68 | 1018.5 |
| 20260906155104 | 76 | 23 | 0.0 | 0.0 | 0.01 | 0.07 | 0.02 | 70 | 1018.3 |
| 20260906154604 | 76 | 20 | 0.0 | 0.0 | 0.01 | 0.07 | 0.02 | 71 | 1018.3 |
| 20260906154104 | 76 | 20 | 0.0 | 0.0 | 0.01 | 0.07 | 0.02 | 72 | 1018.3 |
| 20260906153604 | 76 | 20 | 0.0 | 0.0 | 0.01 | 0.07 | 0.02 | 74 | 1018.2 |
| 20260906152604 | 75 | 21 | 0.0 | 0.0 | 0.01 | 0.07 | 0.02 | 81 | 1018.3 |
| 20260906152104 | 74 | 22 | 0.0 | 0.0 | 0.01 | 0.07 | 0.02 | 84 | 1018.3 |
| 20260906151604 | 73 | 11 | 0.0 | 0.0 | 0.01 | 0.07 | 0.02 | 86 | 1018.2 |
| 20260906151104 | 72 | 327 | 0.0 | 0.0 | 0.00 | 0.06 | 0.01 | 87 | 1018.2 |
| 20260906150604 | 72 | 327 | 0.0 | 0.0 | 0.00 | 0.06 | 0.01 | 89 | 1018.2 |
| 20260906150104 | 71 | 313 | 0.0 | 0.0 | 0.00 | 0.06 | 0.01 | 89 | 1018.2 |
| 20260906144604 | 70 | 25 | 0.0 | 0.0 | 0.00 | 0.06 | 0.01 | 91 | 1018.1 |
| 20260906144103 | 69 | 45 | 0.0 | 0.0 | 0.00 | 0.06 | 0.01 | 91 | 1018.2 |
| 20260906143105 | 69 | 13 | 0.0 | 0.0 | 0.00 | 0.06 | 0.01 | 92 | 1018.3 |
| 20260906142604 | 68 | 9 | 0.0 | 0.0 | 0.00 | 0.06 | 0.01 | 92 | 1018.3 |
| 20260906142103 | 68 | 9 | 0.0 | 0.0 | 0.00 | 0.06 | 0.01 | 92 | 1018.2 |
| 20260906141604 | 68 | 9 | 0.0 | 0.0 | 0.00 | 0.06 | 0.01 | 92 | 1018.2 |
| 20260906141104 | 68 | 0 | 0.0 | 0.0 | 0.00 | 0.06 | 0.01 | 92 | 1018.1 |
| 20260906140604 | 67 | 6 | 0.0 | 0.0 | 0.00 | 0.06 | 0.01 | 92 | 1018.1 |
| 20260906140104 | 67 | 15 | 0.0 | 0.0 | 0.00 | 0.06 | 0.01 | 93 | 1017.9 |
| 20260906134604 | 67 | 9 | 0.0 | 0.0 | 0.00 | 0.06 | 0.01 | 93 | 1017.9 |
| 20260906133606 | 66 | 22 | 0.0 | 0.0 | 0.00 | 0.06 | 0.01 | 93 | 1017.9 |
| 20260906133104 | 66 | 22 | 0.0 | 0.0 | 0.00 | 0.06 | 0.01 | 93 | 1017.9 |
| 20260906132604 | 66 | 21 | 0.0 | 0.0 | 0.00 | 0.06 | 0.01 | 93 | 1018.0 |
| 20260906132104 | 66 | 21 | 0.0 | 0.0 | 0.00 | 0.06 | 0.01 | 92 | 1018.0 |
| 20260906131604 | 65 | 21 | 0.0 | 0.0 | 0.00 | 0.06 | 0.01 | 92 | 1017.9 |
| 20260906131103 | 65 | 22 | 0.0 | 0.0 | 0.00 | 0.06 | 0.01 | 93 | 1017.9 |
| 20260906130604 | 65 | 9 | 0.0 | 0.0 | 0.00 | 0.06 | 0.01 | 92 | 1017.8 |
| 20260906130104 | 65 | 9 | 0.0 | 0.0 | 0.00 | 0.06 | 0.01 | 93 | 1018.0 |
| 20260906125604 | 64 | 9 | 0.0 | 0.0 | 0.00 | 0.06 | 0.01 | 92 | 1017.9 |
| 20260906125104 | 64 | 9 | 0.0 | 0.0 | 0.00 | 0.06 | 0.01 | 92 | 1017.8 |
| 20260906124104 | 63 | 9 | 0.0 | 0.0 | 0.00 | 0.07 | 0.01 | 92 | 1017.7 |
| 20260906123603 | 62 | 9 | 0.0 | 0.0 | 0.00 | 0.07 | 0.01 | 92 | 1017.7 |
| 20260906123104 | 62 | 9 | 0.0 | 0.0 | 0.00 | 0.07 | 0.01 | 92 | 1017.7 |
| 20260906122603 | 62 | 9 | 0.0 | 0.0 | 0.00 | 0.07 | 0.01 | 92 | 1017.7 |
| 20260906122104 | 61 | 9 | 0.0 | 0.0 | 0.00 | 0.07 | 0.01 | 91 | 1017.7 |
| 20260906121604 | 61 | 9 | 0.0 | 0.0 | 0.00 | 0.07 | 0.01 | 91 | 1017.7 |
| 20260906121104 | 61 | 9 | 0.0 | 0.0 | 0.00 | 0.07 | 0.01 | 91 | 1017.7 |
| 20260906120603 | 61 | 9 | 0.0 | 0.0 | 0.00 | 0.07 | 0.01 | 91 | 1017.6 |
| 20260906115604 | 60 | 9 | 0.0 | 0.0 | 0.00 | 0.07 | 0.01 | 91 | 1017.3 |
| 20260906115104 | 60 | 9 | 0.0 | 0.0 | 0.00 | 0.07 | 0.01 | 91 | 1017.2 |
| 20260906114604 | 60 | 9 | 0.0 | 0.0 | 0.00 | 0.07 | 0.01 | 91 | 1017.2 |
| 20260906114106 | 60 | 9 | 0.0 | 0.0 | 0.00 | 0.07 | 0.01 | 91 | 1017.2 |
| 20260906113604 | 60 | 9 | 0.0 | 0.0 | 0.00 | 0.07 | 0.01 | 90 | 1017.2 |
| 20260906113104 | 60 | 9 | 0.0 | 0.0 | 0.00 | 0.07 | 0.01 | 90 | 1017.2 |
| 20260906112103 | 60 | 9 | 0.0 | 0.0 | 0.00 | 0.07 | 0.01 | 90 | 1017.2 |
| 20260906111604 | 60 | 9 | 0.0 | 0.0 | 0.00 | 0.07 | 0.01 | 90 | 1017.1 |
| 20260906111104 | 60 | 9 | 0.0 | 0.0 | 0.00 | 0.07 | 0.01 | 90 | 1017.0 |
| 20260906110604 | 60 | 9 | 0.0 | 0.0 | 0.00 | 0.07 | 0.01 | 90 | 1016.9 |
| 20260906110103 | 60 | 9 | 0.0 | 0.0 | 0.00 | 0.07 | 0.01 | 90 | 1016.9 |
| 20260906105604 | 60 | 9 | 0.0 | 0.0 | 0.00 | 0.07 | 0.01 | 90 | 1016.8 |
| 20260906104104 | 60 | 9 | 0.0 | 0.0 | 0.00 | 0.07 | 0.01 | 90 | 1016.7 |
| 20260906103604 | 60 | 9 | 0.0 | 0.0 | 0.00 | 0.07 | 0.01 | 90 | 1016.7 |
| 20260906103104 | 60 | 9 | 0.0 | 0.0 | 0.00 | 0.07 | 0.01 | 90 | 1016.7 |
| 20260906102604 | 60 | 9 | 0.0 | 0.0 | 0.00 | 0.07 | 0.01 | 90 | 1016.7 |
| 20260906102103 | 60 | 9 | 0.0 | 0.0 | 0.00 | 0.07 | 0.01 | 89 | 1016.6 |
| 20260906101604 | 60 | 9 | 0.0 | 0.0 | 0.00 | 0.07 | 0.01 | 89 | 1016.6 |
| 20260906101104 | 60 | 9 | 0.0 | 0.0 | 0.00 | 0.07 | 0.01 | 89 | 1016.6 |
| 20260906100604 | 60 | 9 | 0.0 | 0.0 | 0.00 | 0.07 | 0.01 | 89 | 1016.6 |
| 20260906100104 | 60 | 9 | 0.0 | 0.0 | 0.00 | 0.07 | 0.01 | 89 | 1016.6 |
| 20260906095603 | 60 | 9 | 0.0 | 0.0 | 0.00 | 0.07 | 0.01 | 89 | 1016.5 |
| 20260906095104 | 60 | 9 | 0.0 | 0.0 | 0.00 | 0.08 | 0.01 | 89 | 1016.5 |
| 20260906093603 | 60 | 9 | 0.0 | 0.0 | 0.00 | 0.08 | 0.01 | 88 | 1016.5 |
| 20260906093104 | 60 | 9 | 0.0 | 0.0 | 0.00 | 0.08 | 0.01 | 88 | 1016.5 |
| 20260906092604 | 60 | 9 | 0.0 | 0.0 | 0.00 | 0.08 | 0.01 | 88 | 1016.5 |
| 20260906092104 | 60 | 9 | 0.0 | 0.0 | 0.00 | 0.08 | 0.01 | 88 | 1016.5 |
| 20260906091604 | 60 | 9 | 0.0 | 0.0 | 0.00 | 0.08 | 0.01 | 88 | 1016.5 |
| 20260906091104 | 60 | 9 | 0.0 | 0.0 | 0.01 | 0.08 | 0.01 | 88 | 1016.6 |
| 20260906090603 | 60 | 9 | 0.0 | 0.0 | 0.01 | 0.08 | 0.01 | 88 | 1016.6 |
| 20260906085604 | 60 | 9 | 0.0 | 0.0 | 0.01 | 0.08 | 0.01 | 88 | 1016.5 |
| 20260906085104 | 60 | 9 | 0.0 | 0.0 | 0.01 | 0.08 | 0.01 | 88 | 1016.4 |
| 20260906084604 | 60 | 9 | 0.0 | 0.0 | 0.01 | 0.08 | 0.01 | 88 | 1016.3 |
| 20260906084104 | 60 | 9 | 0.0 | 0.0 | 0.01 | 0.08 | 0.01 | 87 | 1016.2 |
| 20260906083603 | 60 | 9 | 0.0 | 0.0 | 0.01 | 0.08 | 0.01 | 87 | 1016.1 |
| 20260906083104 | 61 | 9 | 0.0 | 0.0 | 0.01 | 0.08 | 0.01 | 87 | 1016.1 |
| 20260906082603 | 61 | 9 | 0.0 | 0.0 | 0.01 | 0.08 | 0.01 | 87 | 1016.1 |
| 20260906082104 | 61 | 9 | 0.0 | 0.0 | 0.01 | 0.08 | 0.01 | 87 | 1016.1 |
| 20260906081604 | 61 | 9 | 0.0 | 0.0 | 0.01 | 0.08 | 0.01 | 87 | 1016.1 |
| 20260906081104 | 61 | 9 | 0.0 | 0.0 | 0.00 | 0.07 | 0.00 | 87 | 1016.1 |
| 20260906080604 | 61 | 9 | 0.0 | 0.0 | 0.00 | 0.07 | 0.00 | 87 | 1016.1 |
| 20260906080103 | 61 | 9 | 0.0 | 0.0 | 0.00 | 0.07 | 0.00 | 87 | 1016.1 |
| 20260906075604 | 61 | 9 | 0.0 | 0.0 | 0.00 | 0.07 | 0.00 | 86 | 1016.1 |
| 20260906075104 | 61 | 9 | 0.0 | 0.0 | 0.00 | 0.07 | 0.00 | 86 | 1016.1 |
| 20260906074604 | 61 | 9 | 0.0 | 0.0 | 0.00 | 0.07 | 0.00 | 86 | 1016.1 |
| 20260906074104 | 61 | 9 | 0.0 | 0.0 | 0.00 | 0.07 | 0.00 | 86 | 1016.1 |
| 20260906073604 | 61 | 9 | 0.0 | 0.0 | 0.00 | 0.07 | 0.00 | 86 | 1016.0 |
| 20260906073104 | 61 | 9 | 0.0 | 0.0 | 0.00 | 0.07 | 0.00 | 86 | 1016.0 |
| 20260906072103 | 61 | 9 | 0.0 | 0.0 | 0.00 | 0.07 | 0.00 | 86 | 1016.0 |
| 20260906071603 | 61 | 9 | 0.0 | 0.0 | 0.00 | 0.07 | 0.00 | 86 | 1016.0 |
| 20260906070603 | 61 | 9 | 0.0 | 0.0 | 0.00 | 0.07 | 0.00 | 85 | 1015.8 |
| 20260906070103 | 61 | 9 | 0.0 | 0.0 | 0.00 | 0.07 | 0.00 | 85 | 1015.6 |
| 20260906065603 | 61 | 9 | 0.0 | 0.0 | 0.00 | 0.07 | 0.00 | 85 | 1015.6 |
| 20260906065104 | 61 | 9 | 0.0 | 0.0 | 0.00 | 0.07 | 0.00 | 84 | 1015.6 |
| 20260906064604 | 61 | 9 | 0.0 | 0.0 | 0.00 | 0.07 | 0.00 | 84 | 1015.7 |
| 20260906064104 | 62 | 9 | 0.0 | 0.0 | 0.00 | 0.07 | 0.00 | 84 | 1015.8 |
| 20260906063605 | 62 | 9 | 0.0 | 0.0 | 0.00 | 0.07 | 0.00 | 84 | 1015.8 |
| 20260906063104 | 62 | 9 | 0.0 | 0.0 | 0.00 | 0.07 | 0.00 | 84 | 1015.6 |
| 20260906062604 | 62 | 9 | 0.0 | 0.0 | 0.00 | 0.07 | 0.00 | 84 | 1015.6 |
| 20260906062104 | 62 | 9 | 0.0 | 0.0 | 0.00 | 0.07 | 0.00 | 83 | 1015.5 |
| 20260906061604 | 62 | 9 | 0.0 | 0.0 | 0.00 | 0.07 | 0.00 | 83 | 1015.6 |
| 20260906061105 | 62 | 9 | 0.0 | 0.0 | 0.00 | 0.07 | 0.00 | 83 | 1015.6 |
| 20260906060605 | 62 | 9 | 0.0 | 0.0 | 0.00 | 0.07 | 0.00 | 83 | 1015.5 |
| 20260906055604 | 62 | 9 | 0.0 | 0.0 | 0.00 | 0.08 | 0.00 | 82 | 1015.8 |
| 20260906054604 | 63 | 9 | 0.0 | 0.0 | 0.00 | 0.08 | 0.00 | 82 | 1015.6 |
| 20260906054104 | 63 | 9 | 0.0 | 0.0 | 0.00 | 0.08 | 0.00 | 81 | 1015.8 |
| 20260906053607 | 63 | 9 | 0.0 | 0.0 | 0.00 | 0.08 | 0.00 | 81 | 1015.7 |
| 20260906053105 | 63 | 9 | 0.0 | 0.0 | 0.00 | 0.08 | 0.00 | 81 | 1015.6 |
| 20260906052604 | 63 | 9 | 0.0 | 0.0 | 0.00 | 0.08 | 0.00 | 81 | 1015.6 |
| 20260906052104 | 64 | 9 | 0.0 | 0.0 | 0.00 | 0.08 | 0.00 | 80 | 1015.7 |
| 20260906051605 | 64 | 9 | 0.0 | 0.0 | 0.00 | 0.08 | 0.00 | 80 | 1015.9 |
| 20260906051105 | 64 | 9 | 0.0 | 0.0 | 0.00 | 0.08 | 0.00 | 80 | 1015.9 |
| 20260906050605 | 64 | 9 | 0.0 | 0.0 | 0.00 | 0.08 | 0.00 | 79 | 1016.0 |
| 20260906050105 | 64 | 9 | 0.0 | 0.0 | 0.00 | 0.08 | 0.00 | 79 | 1015.9 |
| 20260906045104 | 65 | 9 | 0.0 | 0.0 | 0.00 | 0.08 | 0.00 | 78 | 1015.8 |
| 20260906044604 | 65 | 9 | 0.0 | 0.0 | 0.00 | 0.08 | 0.00 | 77 | 1015.8 |
| 20260906043105 | 65 | 9 | 0.0 | 0.0 | 0.01 | 0.08 | 0.00 | 76 | 1015.7 |
| 20260906042604 | 66 | 9 | 0.0 | 0.0 | 0.01 | 0.08 | 0.00 | 76 | 1015.7 |
| 20260906042104 | 66 | 9 | 0.0 | 0.0 | 0.01 | 0.08 | 0.00 | 76 | 1015.6 |
| 20260906041604 | 66 | 9 | 0.0 | 0.0 | 0.01 | 0.08 | 0.00 | 76 | 1015.6 |
| 20260906041104 | 66 | 9 | 0.0 | 0.0 | 0.01 | 0.08 | 0.00 | 76 | 1015.7 |
| 20260906040105 | 66 | 9 | 0.0 | 0.0 | 0.01 | 0.08 | 0.00 | 75 | 1015.5 |
| 20260906035604 | 67 | 9 | 0.0 | 0.0 | 0.01 | 0.09 | 0.08 | 75 | 1015.6 |
| 20260906034604 | 67 | 13 | 0.0 | 0.0 | 0.01 | 0.09 | 0.08 | 74 | 1015.8 |
| 20260906034104 | 67 | 13 | 0.0 | 0.0 | 0.01 | 0.09 | 0.08 | 74 | 1015.7 |
| 20260906033604 | 67 | 13 | 0.0 | 0.0 | 0.00 | 0.08 | 0.07 | 74 | 1015.6 |
| 20260906033104 | 67 | 13 | 0.0 | 0.0 | 0.00 | 0.08 | 0.07 | 74 | 1015.6 |
| 20260906032605 | 68 | 13 | 0.0 | 0.0 | 0.00 | 0.08 | 0.07 | 73 | 1015.5 |
| 20260906032105 | 68 | 13 | 0.0 | 0.0 | 0.00 | 0.08 | 0.07 | 73 | 1015.6 |
| 20260906031604 | 68 | 13 | 0.0 | 0.0 | 0.00 | 0.08 | 0.07 | 73 | 1015.5 |
| 20260906031104 | 68 | 13 | 0.0 | 0.0 | 0.00 | 0.08 | 0.07 | 72 | 1015.5 |
| 20260906030605 | 68 | 13 | 0.0 | 0.0 | 0.00 | 0.08 | 0.07 | 72 | 1015.4 |
| 20260906024604 | 69 | 13 | 0.0 | 0.0 | 0.00 | 0.08 | 0.07 | 70 | 1015.4 |
| 20260906024104 | 69 | 13 | 0.0 | 0.0 | 0.00 | 0.08 | 0.07 | 70 | 1015.4 |
| 20260906023605 | 69 | 13 | 0.0 | 0.0 | 0.00 | 0.08 | 0.07 | 70 | 1015.4 |
| 20260906023105 | 69 | 16 | 0.0 | 0.0 | 0.00 | 0.08 | 0.07 | 69 | 1015.4 |
| 20260906022604 | 69 | 16 | 0.0 | 0.0 | 0.00 | 0.08 | 0.07 | 69 | 1015.4 |
| 20260906022105 | 69 | 9 | 0.0 | 0.0 | 0.00 | 0.08 | 0.07 | 69 | 1015.4 |
| 20260906021607 | 69 | 9 | 0.0 | 0.0 | 0.00 | 0.08 | 0.07 | 69 | 1015.4 |
| 20260906021104 | 69 | 9 | 0.0 | 0.0 | 0.00 | 0.08 | 0.07 | 68 | 1015.4 |
| 20260906020604 | 70 | 9 | 0.0 | 0.0 | 0.00 | 0.08 | 0.07 | 68 | 1015.3 |
| 20260906015605 | 70 | 44 | 0.0 | 0.0 | 0.00 | 0.08 | 0.07 | 68 | 1015.2 |
| 20260906015104 | 70 | 27 | 0.0 | 0.0 | 0.00 | 0.08 | 0.07 | 68 | 1015.2 |
| 20260906014605 | 70 | 28 | 0.0 | 0.0 | 0.00 | 0.08 | 0.07 | 68 | 1015.2 |
| 20260906014104 | 70 | 28 | 0.0 | 0.0 | 0.00 | 0.08 | 0.07 | 68 | 1015.1 |
| 20260906013604 | 71 | 28 | 0.0 | 0.0 | 0.00 | 0.08 | 0.07 | 68 | 1015.0 |
| 20260906013104 | 71 | 28 | 0.0 | 0.0 | 0.00 | 0.08 | 0.07 | 68 | 1014.9 |
| 20260906012604 | 71 | 28 | 0.0 | 0.0 | 0.00 | 0.08 | 0.07 | 68 | 1014.9 |
| 20260906012104 | 71 | 28 | 0.0 | 0.0 | 0.00 | 0.08 | 0.07 | 68 | 1014.8 |
| 20260906011105 | 71 | 319 | 0.0 | 0.0 | 0.00 | 0.08 | 0.07 | 67 | 1014.7 |
| 20260906010605 | 72 | 319 | 0.0 | 0.0 | 0.00 | 0.08 | 0.07 | 67 | 1014.5 |
| 20260906010104 | 72 | 227 | 0.0 | 0.0 | 0.00 | 0.09 | 0.07 | 66 | 1014.6 |
| 20260906005604 | 72 | 217 | 0.0 | 0.0 | 0.00 | 0.09 | 0.07 | 66 | 1014.5 |
| 20260906005104 | 72 | 217 | 0.0 | 0.0 | 0.00 | 0.09 | 0.07 | 66 | 1014.4 |
| 20260906004605 | 73 | 217 | 0.0 | 0.0 | 0.00 | 0.09 | 0.07 | 65 | 1014.4 |
| 20260906004105 | 73 | 217 | 0.0 | 0.0 | 0.00 | 0.09 | 0.07 | 65 | 1014.3 |
| 20260906003604 | 73 | 217 | 0.0 | 0.0 | 0.00 | 0.09 | 0.07 | 64 | 1014.2 |
| 20260906003104 | 74 | 217 | 0.0 | 0.0 | 0.00 | 0.09 | 0.07 | 64 | 1014.0 |
| 20260906002104 | 74 | 217 | 0.0 | 0.0 | 0.00 | 0.09 | 0.07 | 63 | 1013.9 |
| 20260906001604 | 74 | 213 | 0.0 | 0.0 | 0.00 | 0.09 | 0.07 | 62 | 1013.9 |
| 20260906001104 | 75 | 217 | 0.0 | 0.0 | 0.00 | 0.09 | 0.07 | 62 | 1013.9 |
| 20260906000604 | 75 | 217 | 0.0 | 0.0 | 0.00 | 0.09 | 0.07 | 62 | 1014.0 |
| 20260906000104 | 75 | 217 | 0.0 | 0.0 | 0.00 | 0.09 | 0.07 | 61 | 1014.0 |
| 20260905235604 | 76 | 217 | 0.0 | 0.0 | 0.00 | 0.09 | 0.07 | 61 | 1014.0 |
| 20260905235104 | 76 | 218 | 0.0 | 0.0 | 0.00 | 0.09 | 0.07 | 60 | 1013.9 |
| 20260905234604 | 76 | 218 | 0.0 | 0.0 | 0.00 | 0.10 | 0.07 | 59 | 1013.9 |
| 20260905233604 | 77 | 217 | 0.0 | 0.0 | 0.01 | 0.10 | 0.07 | 58 | 1013.9 |
| 20260905233104 | 78 | 217 | 0.0 | 0.0 | 0.01 | 0.10 | 0.07 | 58 | 1013.9 |
| 20260905232605 | 78 | 217 | 0.0 | 0.0 | 0.01 | 0.10 | 0.07 | 56 | 1013.9 |
| 20260905232104 | 78 | 159 | 0.0 | 0.0 | 0.01 | 0.10 | 0.07 | 55 | 1013.9 |
| 20260905231604 | 78 | 160 | 0.0 | 0.0 | 0.01 | 0.10 | 0.07 | 55 | 1013.8 |
| 20260905230604 | 79 | 312 | 0.0 | 0.0 | 0.01 | 0.10 | 0.07 | 55 | 1013.8 |
| 20260905225104 | 79 | 32 | 0.0 | 0.0 | 0.01 | 0.10 | 0.07 | 54 | 1013.6 |
| 20260905224605 | 79 | 24 | 0.0 | 0.0 | 0.01 | 0.10 | 0.07 | 58 | 1013.4 |
| 20260905224104 | 79 | 31 | 0.0 | 0.0 | 0.00 | 0.09 | 0.06 | 57 | 1013.3 |
| 20260905223604 | 79 | 31 | 0.0 | 0.0 | 0.00 | 0.09 | 0.06 | 59 | 1013.3 |
| 20260905223104 | 79 | 32 | 0.0 | 0.0 | 0.00 | 0.09 | 0.06 | 60 | 1013.3 |
| 20260905221604 | 80 | 327 | 0.0 | 0.0 | 0.00 | 0.09 | 0.06 | 59 | 1013.3 |
| 20260905221104 | 80 | 36 | 0.0 | 0.0 | 0.00 | 0.09 | 0.06 | 59 | 1013.3 |
| 20260905220604 | 80 | 11 | 0.0 | 0.0 | 0.00 | 0.09 | 0.06 | 59 | 1013.3 |
| 20260905220104 | 81 | 34 | 0.0 | 0.0 | 0.00 | 0.09 | 0.06 | 59 | 1013.3 |
| 20260905215105 | 82 | 199 | 0.0 | 0.0 | 0.00 | 0.10 | 0.06 | 57 | 1013.3 |
| 20260905214604 | 82 | 132 | 0.0 | 0.0 | 0.00 | 0.10 | 0.06 | 57 | 1013.2 |
| 20260905214104 | 82 | 32 | 0.0 | 0.0 | 0.00 | 0.10 | 0.06 | 58 | 1013.2 |
| 20260905213604 | 83 | 32 | 0.0 | 0.0 | 0.01 | 0.10 | 0.06 | 57 | 1013.2 |
| 20260905213104 | 83 | 51 | 0.0 | 0.0 | 0.01 | 0.10 | 0.06 | 56 | 1013.1 |
| 20260905212604 | 83 | 158 | 0.0 | 0.0 | 0.01 | 0.10 | 0.06 | 55 | 1013.1 |
| 20260905212104 | 83 | 113 | 0.0 | 0.0 | 0.01 | 0.10 | 0.06 | 56 | 1013.2 |
| 20260905211604 | 83 | 61 | 0.0 | 2.0 | 0.01 | 0.10 | 0.06 | 56 | 1013.1 |
| 20260905211104 | 83 | 108 | 2.0 | 7.0 | 0.01 | 0.10 | 0.06 | 57 | 1013.1 |
| 20260905210604 | 83 | 330 | 2.0 | 5.0 | 0.01 | 0.11 | 0.06 | 56 | 1013.2 |
| 20260905210105 | 83 | 120 | 1.0 | 5.0 | 0.01 | 0.11 | 0.06 | 56 | 1013.2 |
| 20260905205604 | 83 | 64 | 1.0 | 6.0 | 0.01 | 0.11 | 0.06 | 57 | 1013.2 |
| 20260905204605 | 83 | 0 | 1.0 | 2.0 | 0.01 | 0.11 | 0.06 | 60 | 1013.2 |
| 20260905204104 | 82 | 14 | 1.0 | 3.0 | 0.01 | 0.11 | 0.06 | 60 | 1013.2 |
| 20260905203604 | 82 | 173 | 1.0 | 2.0 | 0.00 | 0.10 | 0.05 | 61 | 1013.2 |
| 20260905203104 | 81 | 19 | 1.0 | 3.0 | 0.00 | 0.10 | 0.05 | 61 | 1013.2 |
| 20260905201604 | 80 | 161 | 0.0 | 5.0 | 0.00 | 0.10 | 0.05 | 61 | 1013.3 |